ONEWEB-0626 (55167 NORAD) Tracking and Keplerian Element Data

This shows tracking and keplerian element data for the satellite.

Feedback or suggestion? Click here.




ElementValue
Catalog55167
NameONEWEB-0626
Epoch Orbit1120
Epoch Day84.87753268
Epoch Year2023
RAAN253.5899
Inclination86.6242
Eccentricity0.0013651
Argument of Perigee343.4861
Mean Anonmoly16.5906
Mean Motion14.65731398
Decay Rate1.686E-05
L11 55167U 23004AD 23084.87753268 .00001686 00000+0 30523-3 0 9992
L22 55167 86.6242 253.5899 0013651 343.4861 16.5906 14.65731398 11208



Live tracking and technical data element details for ONEWEB-0626 (NORAD 55167). ONEWEB-0626 can be tracked NOW for your location showing map with azimuth and elevation plus other details from your city location.







IsCatalogInMostPopularTable: catalog: 55167, numindb: 12
Update: records affected: 1



GetName: 55167 ONEWEB-0626

Hit Count: updated at: Mon, 27 Mar 2023 07:59:40 GMT